Location: Cruquius
(52.3348°N, 4.6319°E)
Time: 23:02:19
(UTC+00:00)

ATLAS 2AS CENTAUR R/B - Pass Details

Date: 12 May 2021
Orbit: 949 x 1263 km, 63.7° (Epoch: 07 May)

Event Time Altitude Azimuth Distance (km) Brightness Sun altitude
Rises 20:36:29 0° 311° (NW) 4,154 8.1 -9.1°
Reaches altitude 10° 20:39:22 10° 314° (NW) 3,152 6.8 -9.4°
Maximum altitude 20:46:55 70° 38° (NE) 1,214 3.1 -10.2°
Enters shadow 20:53:31 12° 122° (ESE) 2,792 4.3 -10.8°
